Showing default

USA 72, 21775

Orbit data source: Space-Track

USA 72, 21775 is an American payload satellite in HEO that was launched on Fri, 08 Nov 1991 UTC via a TITAN 403A launch vehicle from the Air Force Western Test Range (AFWTR). Payloads include a variety of satellites, spacecraft, and rockets equipped with specific instruments for various scientific and technological missions. These include communications satellites like Starlink; space stations such as the ISS; scientific satellites like the Hubble; Earth observation satellites from companies like Planet Labs, Umbra, and HawkEye 360; GPS; miniature CubeSats for education and research; and military/defense satellites.

Loading next visibility...
USA 72 details
Identifier
21775, 1991-076A
Orbit
HEO
Last TLE update1 day ago
Origin
Flag of USNRO/NRL (US)
ManufacturerNRL
MissionDefense Sigint
Bus & MotorNOSS B, Unknown motor
Mass~3,000 kg wet, ~3,000 kg dry
Launch date (UTC)
1991-11-08 (33 years ago)
Launch vehicle
TITAN 403A
Launch site
Air Force Western Test Range (AFWTR)
Object type
Payload
Rocket body
Debris
Shape & HBRCyl, 1 m
Radar Cross Section1.178 m²

Expand to show TLE details & history

TLE from 1 day ago
0 USA 72
1 21775U 91076A   24360.44741771 -.00000023  00000-0  00000-0 0  9991
2 21775  63.3622  72.2062 3361181 272.3511  50.3500  5.53395765 12744
Epoch: 2024-12-25T10:44Z
Definitive object data (Epoch: 2024-12-25T10:44:16.89Z)
Latitude-0°
Longitude176.70149°
Altitude5,443.356 km
Speed6.158 km/s
True Right ascension04h 48m 51s
True Declination0° 00' 00"
Sunlit
Object was in full shadow at TLE epoch
Visualization TLE readout
Latitude12.48673°
Longitude-177.39161°
Altitude6,473.89 km
Speed5.702 km/s
Apparent Right ascension03h 57m 32s
Apparent Declination-5° 04' 08"
Sunlit
Object is in full shadow
Visualization observer readout
Local Sidereal Time12:16:03
Azimuth289.824° WNW
Elevation-29.397°
Doppler factor1
Orbital elements
Apogee altitude11,660.268 km
Perigee altitude2,584.672 km
Semi-major axis13,500.607 km
Eccentricity0.3361181
Inclination63.3622°
RAAN72.2062°
Arg. of periapsis272.3511°
True anomaly87.72967°
Mean anomaly50.35°
Eccentric anomaly68.23532°
Mean motion1.38361 °/min
BSTARUnknown
Orbital period260.19 mins
Loading maneuver chart data...
Loading historical data...
Loading historical data...
Loading historical data...
Loading historical data...
Loading historical data...
Loading historical data...
Loading historical data...

USA 72 Visibility forecast

Observer location: undefined°, undefined

Span
Click to sort rows by Start time (UTC) header in descending order
Start Az.
Max El. time (UTC)
Max El. Az.
Max El.
End time (UTC)
End Az.
134 mins2024-12-26 13:37:28.261Z311.719° NW2024-12-26 15:08:28.261Z60.68° ENE44.613°2024-12-26 15:51:28.261Z145.991° SSE
80 mins2024-12-26 18:43:28.261Z328.116° NNW2024-12-26 19:31:28.261Z290.076° WNW23.813°2024-12-26 20:03:28.261Z244.784° WSW
48 mins2024-12-27 02:08:28.261Z82.564° E2024-12-27 02:29:28.261Z58.184° ENE14.54°2024-12-27 02:56:28.261Z35.912° NE
122 mins2024-12-27 06:04:28.261Z197.664° SSW2024-12-27 06:40:28.261Z118.801° SE44.872°2024-12-27 08:06:28.261Z41.14° NE
122 mins2024-12-27 10:52:28.261Z282.174° WNW2024-12-27 12:14:28.261Z17.054° NNE39.743°2024-12-27 12:54:28.261Z77.882° E
|